Theta_e
309 310 310 309 309 309 308 308 307 307 307 308 307 307 307 307 307 307 308 308 308 308 309 309 309 309 310 311 310 311 311 312 317 319 319 318 315 314 313 313 313 313 314 315 316 316 316 316 317 317 317 319 319 320 321 321 321 320 321 320 318 318 319 320 320 318 318 318 317 317 317 317 316 317 316 315 315 316 316 316 317 317 318 317 317 318 319 318
310 310 310 310 309 309 308 308 308 308 308 309 308 308 308 307 308 307 308 308 308 309 309 309 309 309 310 310 311 312 310 313 319 320 318 316 314 314 314 313 313 313 314 316 316 316 316 316 317 316 318 319 319 320 320 321 321 320 321 320 319 319 319 320 319 317 318 318 317 317 317 317 317 316 316 316 316 316 316 317 317 317 317 318 318 318 319 319
310 310 310 310 309 309 308 309 309 309 309 309 310 310 309 308 308 308 308 308 309 309 309 309 309 309 310 309 311 310 311 318 321 320 317 315 314 315 315 313 313 313 314 317 317 317 316 316 317 316 317 318 319 320 320 320 320 319 320 320 320 320 320 320 319 318 317 317 317 317 317 317 317 316 317 316 316 316 316 317 317 317 317 318 318 318 318 319
311 311 311 310 309 309 309 309 310 310 309 310 310 310 310 309 309 309 309 309 309 309 309 310 309 309 309 309 310 309 316 322 320 317 316 315 315 314 315 315 314 313 315 317 317 317 316 315 317 316 317 317 318 319 319 320 320 320 321 320 319 319 320 320 318 318 318 317 317 317 317 317 316 317 316 316 316 316 316 317 317 317 317 317 317 318 318 318
311 311 312 311 310 310 310 310 310 309 309 310 311 310 310 309 309 309 309 309 309 309 309 309 309 309 308 309 308 310 318 321 316 317 316 314 315 314 314 315 314 314 316 316 316 316 315 315 316 315 317 317 317 319 318 319 320 320 321 319 318 318 319 319 318 318 318 317 316 317 316 317 317 317 316 316 316 316 316 316 316 316 316 317 316 317 318 318
312 311 311 311 310 310 310 311 310 309 309 311 311 311 310 310 310 308 308 308 308 308 308 309 309 309 309 309 309 312 317 316 315 318 316 315 316 314 315 315 315 314 315 316 316 316 315 315 316 316 316 316 316 318 317 317 320 319 318 317 317 318 318 318 318 318 317 317 316 317 317 317 317 317 317 316 316 317 317 316 316 316 316 317 317 317 317 317
312 311 311 311 311 311 311 312 311 311 312 312 311 311 311 310 310 309 309 309 309 309 309 309 309 310 309 309 312 315 317 316 317 317 314 316 315 315 315 315 315 314 315 316 316 316 315 315 315 315 316 315 316 316 316 317 319 318 316 316 317 318 318 318 317 317 317 317 316 316 316 317 316 317 316 316 316 317 317 318 317 317 318 317 316 316 316 317
313 312 311 311 311 312 312 313 313 313 313 313 312 312 312 312 311 311 311 311 311 310 310 310 310 310 309 312 318 316 315 317 317 315 314 314 314 315 315 315 315 315 316 317 316 316 316 316 315 315 315 315 316 316 316 316 317 318 317 316 316 317 318 317 317 316 317 317 316 316 316 316 316 316 316 315 316 316 316 316 316 317 317 316 316 315 316 316
314 313 312 311 312 314 314 315 315 315 314 314 315 314 314 313 313 312 312 312 312 311 311 310 310 311 310 314 318 315 317 319 315 314 313 313 314 314 315 316 315 316 317 317 317 317 316 316 315 316 315 315 316 316 316 315 315 316 317 316 316 317 316 316 315 316 316 316 316 315 315 315 315 315 315 315 315 316 315 316 316 315 316 315 315 315 315 315
314 313 312 313 316 317 318 317 317 316 316 317 318 317 316 314 313 313 312 312 311 311 311 310 310 310 312 315 316 316 320 318 313 314 313 313 315 315 317 318 316 316 317 317 318 317 316 316 317 317 315 315 315 315 315 315 315 315 315 315 315 314 314 314 314 315 315 315 315 315 314 315 315 314 314 315 315 316 315 315 315 314 315 314 315 315 315 315
314 314 315 317 319 319 319 318 318 318 318 319 319 319 317 315 315 314 313 312 311 311 310 309 309 310 314 316 316 319 319 315 313 314 313 314 316 317 318 318 317 317 318 317 317 317 316 317 318 316 315 314 315 315 315 315 314 314 314 313 313 314 314 314 314 314 315 314 314 314 314 314 314 314 314 315 315 315 315 315 315 314 314 314 315 315 315 315
314 316 317 319 319 319 318 318 318 318 318 319 319 319 318 317 316 314 313 312 311 311 309 309 308 310 314 315 316 320 317 314 314 313 313 315 316 317 317 317 316 317 318 318 318 318 317 317 317 315 314 314 314 315 314 312 313 313 313 312 313 314 314 315 315 315 315 314 313 312 312 313 314 314 315 315 315 315 315 315 314 314 314 314 314 315 315 315
315 317 318 319 319 318 317 317 318 319 319 319 319 319 319 318 316 313 312 312 311 310 309 309 308 310 315 316 316 319 317 315 314 312 313 315 316 317 317 317 316 316 318 317 317 317 316 316 316 315 315 314 314 313 312 311 312 312 313 313 314 314 315 316 316 314 314 313 312 312 311 313 315 315 315 316 315 315 314 314 313 314 314 314 314 314 314 315
315 316 317 318 318 317 317 317 318 319 319 319 319 320 319 318 314 312 312 312 311 311 310 309 308 311 315 315 315 316 315 313 312 313 313 315 316 316 315 315 315 315 316 315 314 313 313 314 315 315 314 313 314 312 312 313 313 313 313 314 314 314 314 316 315 313 313 312 311 312 311 312 315 315 315 315 314 314 313 313 314 313 314 314 314 314 314 315
315 316 316 317 317 317 317 317 318 320 320 320 320 320 319 316 313 313 312 311 311 311 310 308 309 314 316 314 314 313 313 313 313 315 313 314 316 315 314 314 314 314 314 313 312 311 312 314 314 314 313 313 312 312 313 314 313 314 314 314 315 314 315 318 316 313 314 312 311 312 312 313 316 315 315 315 314 314 313 313 313 313 314 314 314 314 315 314
315 315 316 316 316 316 316 318 319 320 321 321 320 321 317 314 313 312 311 310 310 309 311 314 312 314 316 315 314 313 313 315 315 314 311 312 316 316 315 314 314 313 312 312 311 311 312 313 313 313 313 312 312 313 314 314 315 316 315 314 315 315 315 317 317 316 315 313 311 312 312 313 314 314 314 314 314 314 313 313 313 314 314 314 314 314 314 315
316 315 316 315 315 316 316 318 320 320 322 321 321 320 315 314 313 311 310 309 309 309 313 318 313 312 314 314 314 314 315 315 315 314 311 311 314 315 314 314 314 313 312 312 311 312 312 313 313 312 313 313 313 314 315 315 315 316 317 316 316 317 316 316 317 317 314 313 313 312 312 312 313 314 314 314 314 313 313 314 313 314 314 314 314 314 314 314
319 318 317 317 317 318 318 319 319 321 322 321 322 318 314 315 313 311 312 310 310 310 312 313 312 315 317 314 314 314 314 314 312 313 312 311 312 314 314 314 314 313 313 313 312 312 312 313 313 313 314 314 314 315 315 317 316 316 317 316 316 317 316 315 317 317 315 314 314 314 313 314 314 314 314 314 314 314 313 314 314 314 314 315 315 314 315 315
320 320 320 319 320 321 322 321 320 322 322 322 322 316 313 315 313 312 314 312 313 316 315 313 313 318 318 314 314 314 313 313 312 314 314 312 312 313 313 314 314 313 314 314 314 313 312 314 314 314 317 317 316 315 315 318 317 317 317 315 316 315 315 316 317 317 316 315 314 314 314 314 314 314 314 314 314 314 314 314 315 315 315 315 315 315 316 315
321 321 321 321 322 322 323 323 322 322 322 322 320 316 316 320 320 317 315 313 315 316 317 316 315 316 317 316 316 314 313 312 312 315 314 312 313 313 313 314 314 314 315 316 316 314 313 316 316 316 317 318 319 318 317 317 317 317 316 315 315 315 315 316 316 317 315 314 314 314 314 313 314 314 314 314 314 314 315 315 315 315 316 316 316 316 316 315
322 322 322 322 322 323 323 323 323 323 322 321 319 319 319 320 323 321 317 318 320 319 319 320 318 318 318 317 315 315 314 313 313 315 313 312 313 314 313 313 315 315 316 317 316 313 313 316 317 317 318 318 318 317 316 316 316 316 315 315 315 315 315 316 316 317 314 313 313 314 313 313 314 314 314 315 315 316 315 315 315 316 316 317 316 315 315 314
323 324 324 323 324 323 323 322 322 322 322 321 320 320 317 314 316 315 315 320 323 321 321 320 318 317 318 316 312 312 314 315 316 315 312 312 313 314 314 313 315 317 316 315 315 314 315 316 317 317 317 317 317 315 315 315 315 315 315 315 315 316 316 316 316 315 313 312 313 314 313 313 314 314 315 316 316 316 316 316 316 317 316 315 314 314 313 313
323 323 323 324 324 323 323 322 321 321 321 321 321 319 316 313 311 310 312 318 321 321 320 319 317 317 318 316 312 312 314 316 318 316 312 312 313 314 314 315 315 317 316 315 316 317 318 318 317 317 316 316 316 315 314 314 314 315 315 315 315 316 316 316 316 315 313 313 314 314 313 314 316 316 316 316 316 316 317 317 317 316 315 314 313 312 312 311
323 323 324 324 324 324 324 322 321 322 320 319 319 318 316 313 310 310 313 318 321 321 318 316 316 316 316 314 312 313 315 316 317 315 313 313 313 313 314 315 316 317 316 316 317 318 319 319 316 316 316 315 316 315 315 314 315 316 316 316 316 316 316 316 316 315 314 315 314 314 315 317 318 319 318 317 317 317 316 315 315 314 314 313 312 311 310 310
323 323 324 324 325 324 323 323 323 322 320 319 319 317 317 314 310 310 314 320 323 321 317 315 315 315 312 311 311 313 315 315 314 314 314 314 313 314 314 314 315 318 317 317 317 317 318 317 315 315 315 315 315 315 316 316 316 316 317 317 317 317 316 316 316 315 316 317 314 314 318 320 318 318 320 318 318 318 315 313 312 312 312 311 310 309 309 308
323 324 324 324 325 324 323 323 323 322 321 321 320 317 317 314 312 310 314 321 325 323 319 316 315 314 310 310 311 312 315 315 311 311 313 312 312 312 314 314 314 316 316 316 316 317 316 314 314 316 316 316 316 315 316 316 316 317 318 317 317 316 316 316 316 316 316 317 315 314 318 320 318 319 320 318 319 318 313 311 311 311 310 309 309 308 307 307
323 324 324 324 324 323 324 323 322 322 322 322 319 317 317 315 312 312 317 326 328 323 320 315 313 312 310 310 310 312 317 315 310 310 311 311 311 311 314 315 314 314 313 314 316 316 315 314 313 315 316 317 317 316 317 316 316 318 317 316 316 315 316 317 316 315 315 316 316 315 316 319 319 319 319 318 319 317 313 312 311 310 309 308 307 307 306 305
323 323 323 323 323 323 323 323 323 323 322 321 319 318 317 315 313 313 321 332 329 320 317 313 310 310 309 309 309 311 311 310 312 312 309 310 310 311 313 315 315 314 311 314 317 316 315 315 315 315 315 316 317 317 317 316 317 317 314 313 314 314 314 315 314 315 315 315 317 317 316 320 320 318 318 318 317 316 313 312 311 309 309 308 307 306 305 304
322 322 322 322 322 322 321 321 323 323 321 319 319 319 317 314 314 316 324 332 327 317 315 311 309 310 310 309 310 309 308 308 311 311 309 310 310 310 311 312 313 313 312 312 316 316 314 312 313 315 316 316 315 315 316 317 316 314 313 313 313 314 314 314 314 314 314 316 319 319 317 320 320 317 317 317 316 316 313 311 310 309 308 307 306 305 304 303
320 320 321 321 321 321 321 321 321 322 320 319 319 318 316 315 316 322 329 329 324 317 314 311 311 312 311 311 311 310 309 310 310 310 310 311 310 310 309 308 310 312 313 313 313 315 312 308 309 313 315 314 312 310 312 314 314 312 313 313 314 315 314 313 313 313 316 319 320 318 318 319 320 317 316 316 314 315 313 311 310 309 307 306 305 304 303 302
318 318 320 321 320 320 321 322 322 321 321 320 319 318 319 320 321 328 331 324 320 320 315 313 313 312 312 314 315 312 310 310 309 311 312 311 311 311 310 311 311 313 314 314 315 315 313 310 310 312 312 312 312 311 310 310 310 312 313 312 315 317 315 314 314 314 318 322 319 317 318 319 319 316 315 315 314 313 313 311 310 308 306 305 303 302 302 301
316 317 318 319 320 320 321 321 321 321 321 319 319 321 324 325 325 328 326 320 321 323 318 316 314 312 313 314 315 314 312 312 310 310 313 314 314 313 314 315 314 316 316 316 317 317 316 315 313 313 311 311 312 313 312 310 310 311 312 312 316 319 319 319 319 318 320 321 316 315 317 318 318 316 315 316 314 312 312 311 310 308 306 304 303 302 301 300
316 316 317 319 319 319 320 320 319 320 320 317 319 323 324 325 327 326 323 321 324 322 317 316 313 312 314 315 317 316 315 314 310 309 312 314 315 315 316 316 316 318 317 316 317 317 318 318 315 315 313 311 312 314 315 314 312 311 313 315 317 320 322 323 322 320 321 319 314 313 316 317 316 316 317 316 312 310 310 309 308 306 304 303 302 301 300 299
314 315 316 317 318 319 319 319 319 319 318 317 322 326 324 325 326 323 322 323 322 319 317 316 313 313 314 316 318 316 317 318 312 310 312 313 315 316 316 316 316 316 316 316 317 317 318 318 317 317 316 313 312 314 318 318 315 314 314 316 318 319 321 322 321 321 321 319 315 314 316 317 316 315 315 313 309 308 308 306 305 304 303 302 301 300 299 299
312 313 314 315 316 318 318 318 319 318 317 319 324 326 324 325 324 321 322 322 321 321 319 318 318 318 317 318 318 315 316 318 314 312 314 314 316 317 316 317 316 314 316 317 317 317 318 318 318 316 313 312 314 315 316 317 317 316 314 315 317 318 319 320 321 321 321 320 318 316 317 316 315 314 312 310 308 307 306 305 304 303 302 301 300 299 298 298
310 310 311 312 313 316 317 318 318 317 318 321 324 324 323 323 322 321 321 320 320 321 319 320 321 320 320 320 319 317 316 316 316 315 316 315 315 316 317 318 317 314 315 318 318 317 316 317 318 315 312 311 312 313 314 315 317 314 313 316 315 315 317 319 320 319 319 319 318 317 316 315 315 315 312 309 308 307 305 305 304 302 302 301 300 298 297 297
306 307 308 309 311 313 315 317 318 316 317 322 324 323 323 321 320 320 320 318 318 319 319 321 321 320 320 320 320 320 317 315 315 316 317 316 315 316 316 317 318 315 314 316 318 318 318 318 318 317 316 312 307 309 312 312 314 314 314 315 314 314 315 315 317 318 318 319 318 316 316 314 315 316 313 310 309 307 305 304 303 302 301 300 299 298 297 296
304 305 307 308 309 311 313 316 317 315 318 323 324 323 321 320 319 318 318 317 317 319 320 320 321 320 320 319 318 319 318 317 317 316 317 316 315 316 315 316 316 313 312 313 315 317 317 317 317 317 318 313 307 309 312 312 312 312 312 312 313 316 316 315 317 318 318 319 318 317 316 316 315 316 314 312 310 307 305 304 303 302 301 300 298 297 296 296
303 306 309 310 309 310 312 315 316 316 319 323 322 322 320 319 318 317 317 317 317 319 320 320 320 320 319 319 318 318 317 317 316 316 316 316 316 315 314 315 315 311 310 311 314 315 315 317 318 316 315 313 310 311 315 314 311 309 309 311 312 314 315 315 317 317 318 319 319 319 317 316 316 315 314 313 310 307 306 305 303 301 300 299 298 297 296 295
305 308 310 310 308 308 311 314 316 318 321 321 320 320 319 318 318 317 315 316 318 319 319 320 319 318 319 318 317 316 317 317 316 316 316 315 314 315 314 314 314 312 310 310 312 314 314 316 318 316 315 315 314 314 315 314 313 312 311 312 312 313 313 315 315 315 317 318 319 320 319 317 315 314 312 311 309 308 307 305 303 301 299 298 297 297 296 295
306 308 311 310 307 308 311 315 318 319 320 319 317 318 318 318 318 317 315 315 318 318 317 318 319 318 319 318 317 317 318 318 318 316 317 315 314 316 314 312 314 314 313 314 314 314 315 316 317 317 316 316 316 315 315 315 315 315 314 313 314 314 314 316 316 316 316 316 317 318 318 317 313 311 310 309 308 307 306 304 302 300 298 297 296 295 295 294
306 308 311 310 309 310 313 316 318 318 318 318 317 317 317 317 317 317 316 315 317 317 316 317 318 319 319 319 317 317 318 319 318 317 318 316 315 315 313 311 313 313 314 315 316 315 314 315 316 316 316 315 315 314 314 315 314 314 314 314 313 314 314 316 316 316 315 316 317 316 317 318 312 308 308 308 306 305 304 303 301 299 298 297 295 295 294 294
307 309 311 310 310 311 314 317 317 317 318 317 316 317 317 317 317 317 317 316 316 317 317 317 317 317 318 317 316 316 317 317 317 317 316 316 315 313 311 310 312 313 314 314 315 315 313 313 315 315 314 313 312 313 314 314 314 314 314 314 314 314 314 313 313 314 314 315 316 315 316 318 313 307 306 305 304 303 303 302 301 299 297 296 295 295 294 294
308 309 310 310 310 312 314 316 316 317 317 316 316 317 316 316 317 316 316 316 315 316 316 316 316 315 315 315 315 315 316 315 316 316 315 315 314 311 309 310 311 313 313 313 314 313 312 313 315 315 315 315 313 313 314 314 313 313 313 313 314 313 313 313 312 313 314 314 315 315 316 316 312 307 306 305 303 303 302 301 300 299 297 296 295 295 294 293
306 307 308 308 309 312 314 314 314 315 316 315 316 316 315 315 316 315 315 315 315 314 315 315 315 314 314 314 315 315 314 314 314 314 314 314 314 311 308 309 310 311 311 312 312 311 311 313 314 313 315 315 314 313 313 313 313 313 312 312 312 312 313 313 312 314 315 315 314 314 314 313 311 309 308 307 305 303 302 300 299 298 297 296 295 295 293 292
304 306 308 309 309 310 312 312 312 314 314 314 315 314 314 314 314 314 314 313 313 313 314 314 314 314 313 313 313 313 313 313 313 313 313 313 313 311 308 308 310 310 310 310 310 310 310 311 312 312 312 312 311 311 310 311 311 311 311 311 311 312 313 312 311 312 313 312 312 312 312 312 311 309 308 308 307 305 302 300 299 298 297 296 295 294 293 292
301 303 309 311 311 311 312 312 312 313 313 313 314 313 313 312 312 313 313 312 312 312 312 312 313 313 312 312 312 311 311 311 311 312 312 312 312 311 308 308 308 307 307 308 308 309 310 309 310 311 311 310 309 309 309 309 309 309 309 310 309 310 311 311 310 310 309 309 309 309 308 309 309 307 306 307 307 306 304 302 300 298 297 296 294 294 293 292
299 302 306 308 309 311 312 311 312 312 312 312 312 311 311 311 310 311 312 312 312 312 311 311 311 311 311 310 310 310 310 310 310 311 311 311 311 310 309 308 307 305 306 307 306 308 309 308 308 308 308 308 307 307 307 306 307 306 307 307 306 307 307 308 308 307 306 307 307 306 305 306 305 304 304 304 304 304 303 301 298 297 296 295 294 293 293 293
298 299 301 303 305 307 307 308 310 312 312 311 311 311 310 309 309 309 311 311 311 311 310 309 310 311 311 310 311 311 310 310 310 310 311 310 309 308 307 308 306 303 305 305 305 306 306 305 305 306 306 306 306 305 305 305 305 305 304 304 304 304 304 305 305 304 304 304 304 303 304 303 303 302 302 302 302 300 299 297 296 295 295 295 294 294 293 293
298 298 300 301 303 302 301 304 308 310 310 310 310 310 309 308 307 308 310 310 310 310 310 309 310 309 308 308 309 310 310 309 307 307 308 307 306 305 305 306 304 303 303 304 304 305 304 304 304 304 304 305 305 305 305 305 304 304 304 304 304 304 304 304 303 303 303 303 303 303 303 303 302 301 299 298 298 297 296 295 295 294 294 293 293 293 293 293
297 298 299 300 302 301 300 303 307 308 309 309 309 309 308 307 307 307 308 307 307 308 309 308 308 307 305 306 307 308 307 306 305 304 304 304 304 304 303 304 303 303 302 302 303 303 304 304 304 303 304 305 304 304 303 302 301 302 302 302 302 302 303 302 302 302 302 302 303 303 303 302 301 299 297 296 295 294 294 294 293 293 293 292 291 292 292 292
296 296 296 299 302 302 300 301 304 306 307 308 308 308 307 307 306 307 307 305 302 304 306 305 306 305 305 306 305 305 304 303 302 301 300 300 300 300 301 301 301 302 302 302 302 302 303 303 302 303 303 304 303 302 301 299 300 300 301 300 300 301 301 301 301 301 301 302 302 302 301 300 299 298 298 296 294 292 293 292 292 291 291 291 291 291 291 291
Wind_Speed
3 3 3 2 2 2 2 3 3 3 3 4 4 4 4 4 4 4 4 5 5 5 5 6 6 7 8 8 9 11 13 14 11 7 8 8 6 6 7 4 4 9 10 8 8 8 7 7 7 6 5 4 3 2 3 2 3 3 4 5 5 5 5 2 4 5 5 7 7 4 3 6 9 5 3 2 7 12 14 14 13 13 14 17 19 14 8 8
3 3 4 3 3 3 3 3 3 3 4 4 5 5 5 5 6 6 6 7 7 7 7 7 7 8 8 9 10 10 14 15 11 12 14 12 8 5 6 6 5 8 11 10 10 9 7 6 7 7 5 3 3 3 3 3 4 5 5 6 6 7 6 3 6 9 7 8 10 9 8 8 10 10 4 5 11 10 13 14 12 14 15 17 20 18 15 12
3 3 4 4 4 4 4 5 5 4 4 4 5 5 6 6 7 7 8 8 8 9 8 8 8 9 9 9 9 10 13 13 10 9 8 7 7 4 3 5 7 8 11 9 9 9 5 4 6 7 5 4 3 4 4 4 5 6 6 6 7 8 9 6 7 9 10 10 11 11 10 10 11 10 7 8 12 12 13 13 13 15 13 12 13 13 14 14
4 4 4 4 4 5 5 5 6 5 5 5 5 6 6 7 8 9 9 9 10 10 10 10 9 10 10 9 8 9 11 10 6 1 7 7 6 3 2 4 6 9 10 6 7 7 5 4 6 7 6 5 4 4 6 5 4 4 6 8 9 7 7 8 9 10 9 8 9 11 11 13 11 8 8 9 10 10 12 12 12 15 14 12 11 10 11 11
5 5 4 4 5 5 5 5 5 6 6 6 6 6 7 8 9 9 10 11 11 11 11 11 10 10 9 8 7 8 8 5 1 6 8 6 3 1 1 4 6 11 9 5 6 6 6 5 6 6 5 6 6 5 8 9 6 4 8 11 12 10 9 10 11 8 5 6 8 11 12 12 9 8 10 12 12 10 10 12 13 17 17 16 14 12 11 10
5 5 5 5 5 5 4 5 5 5 6 7 7 7 7 8 9 10 11 11 12 12 12 11 11 9 8 7 5 4 5 4 2 5 6 4 3 1 2 4 7 12 9 7 7 6 7 7 6 6 6 7 8 8 8 7 7 6 10 12 13 12 12 11 10 3 1 8 11 11 12 11 11 13 13 13 16 15 15 16 17 19 19 18 16 12 11 11
6 5 5 5 4 4 4 4 4 5 6 7 7 7 8 9 10 11 11 12 12 12 12 11 10 9 7 4 2 2 6 7 3 5 6 7 7 3 3 6 9 12 10 9 9 7 8 8 8 7 7 8 9 10 9 5 7 8 11 12 12 12 11 12 11 5 5 11 13 11 12 14 16 15 14 15 17 17 18 17 18 19 19 18 15 13 12 13
6 6 6 5 4 5 4 4 4 5 6 6 7 8 9 10 11 11 12 13 13 13 12 11 10 8 5 1 1 4 7 8 7 7 9 10 8 5 6 7 12 13 11 11 10 8 7 8 10 7 8 9 7 7 5 5 8 11 13 13 11 10 10 11 12 10 10 11 11 12 14 17 18 15 17 20 20 19 19 18 18 17 17 15 14 13 13 13
6 7 6 5 4 4 4 4 5 6 6 7 8 9 10 11 11 12 12 13 13 13 12 11 9 6 3 1 3 6 6 7 9 11 11 9 8 8 8 9 14 14 12 12 10 9 7 7 9 6 8 10 7 7 5 6 7 7 9 11 10 10 11 12 13 14 12 10 9 11 16 18 16 13 16 19 17 15 14 15 15 14 15 14 13 13 13 14
6 6 4 4 4 4 4 5 6 6 7 7 9 10 11 12 12 13 14 14 14 14 12 11 8 6 4 3 5 7 3 4 7 9 9 7 6 8 10 9 13 14 12 10 10 10 8 7 5 2 6 9 7 8 8 7 4 4 8 11 12 15 15 14 16 16 14 12 12 13 15 18 14 8 10 13 11 7 7 10 11 11 14 15 14 13 13 14
6 4 3 3 3 4 5 6 6 7 8 9 10 11 12 13 13 14 14 15 15 14 13 11 8 6 4 5 7 6 1 3 4 6 7 5 5 10 11 10 11 13 11 9 10 11 10 7 2 1 3 4 5 7 7 5 6 8 9 12 15 17 16 16 17 17 13 10 8 11 14 17 14 10 13 16 13 11 11 12 11 12 14 15 15 14 12 12
4 3 3 3 3 4 5 7 7 8 9 10 12 13 13 14 14 15 14 14 14 13 12 10 7 5 4 6 9 8 5 5 7 8 7 5 7 11 12 11 10 11 10 8 9 9 8 4 3 8 5 3 6 6 3 2 5 8 8 12 16 15 15 18 17 12 10 5 3 5 10 12 12 13 17 18 14 13 12 13 13 14 14 14 14 13 11 12
3 3 3 3 4 5 6 7 8 10 11 12 13 14 15 16 15 14 12 12 12 11 10 7 6 6 5 6 6 10 12 12 13 11 8 6 7 9 11 11 11 13 11 7 4 3 6 5 6 10 6 5 8 3 1 2 3 8 9 9 11 12 12 12 9 4 5 5 7 4 7 7 11 14 14 10 7 8 10 14 16 15 15 14 13 12 13 13
3 2 3 3 4 5 7 8 9 11 12 13 14 15 16 16 13 12 11 11 10 10 7 5 7 7 5 5 3 7 10 11 10 7 6 6 5 6 8 9 10 13 11 5 3 3 4 5 6 8 5 6 6 4 4 7 5 8 10 6 6 8 6 4 4 6 3 4 9 7 7 7 11 14 12 7 4 6 11 16 18 17 15 14 12 12 13 13
2 3 3 3 4 6 7 8 10 12 13 14 14 16 16 13 11 11 10 9 7 5 2 5 9 7 4 6 3 3 5 6 6 6 7 7 6 5 6 6 6 7 6 4 3 2 3 5 5 6 4 3 5 6 8 7 6 8 8 6 6 7 7 7 4 8 7 3 9 9 6 7 10 11 12 9 9 11 13 17 19 18 17 16 13 12 12 12
3 3 4 4 5 6 8 9 10 12 14 14 15 17 14 10 10 10 7 5 2 4 6 4 9 6 6 3 4 3 3 4 6 7 8 8 6 4 6 6 4 4 3 3 3 3 5 6 3 3 4 3 5 7 6 6 7 7 7 7 8 8 9 8 4 6 6 2 8 11 7 9 9 11 15 15 16 16 16 19 21 19 18 16 13 11 11 11
5 5 5 6 6 7 8 9 11 13 15 15 16 17 11 7 7 6 4 3 5 8 6 2 6 5 5 2 2 2 3 3 5 4 6 10 7 5 8 7 5 6 6 5 5 6 6 6 2 1 5 6 6 5 5 6 7 6 7 8 9 10 10 8 8 5 3 5 8 11 10 12 12 12 15 17 17 16 17 19 20 17 16 15 12 11 10 9
7 6 6 6 7 8 9 10 11 13 15 14 16 15 7 5 4 3 4 5 8 7 3 2 4 4 3 3 2 1 5 3 5 4 5 9 8 7 7 5 6 8 8 6 5 6 5 4 3 4 6 7 6 5 6 8 8 10 10 8 9 11 11 12 11 6 4 9 11 11 12 15 15 14 14 16 17 17 18 19 16 15 15 15 12 9 8 7
8 6 7 8 8 9 10 12 12 14 16 14 15 13 5 3 1 1 2 2 3 2 0 3 6 4 3 2 1 4 4 4 5 4 5 8 8 8 6 5 8 8 6 4 6 8 5 4 4 5 7 8 9 10 11 13 14 15 13 11 12 12 12 14 14 12 12 12 12 12 14 15 15 14 13 15 17 18 20 17 14 13 14 13 8 5 5 6
7 6 8 9 9 10 12 13 13 14 15 14 15 11 4 2 2 2 3 5 7 7 6 4 8 9 9 3 3 3 3 5 4 3 6 9 8 9 6 6 6 6 6 5 5 6 4 6 6 7 9 11 12 12 14 15 15 16 12 12 14 13 13 13 14 14 9 6 9 12 14 15 15 15 16 17 17 19 19 16 14 14 11 7 4 4 6 6
8 7 8 9 10 11 12 13 13 13 13 12 12 8 2 4 4 2 2 6 11 11 11 10 9 12 13 3 4 3 1 3 4 4 7 9 8 8 7 7 6 5 6 4 4 4 3 7 8 10 14 15 12 9 10 12 14 15 12 12 12 11 12 14 15 15 7 3 7 11 13 16 16 18 19 17 16 16 15 15 14 11 8 5 4 6 7 8
10 10 9 10 11 11 12 14 14 13 10 8 8 4 3 4 3 1 3 7 9 10 12 12 8 11 13 4 3 1 2 6 5 6 9 9 7 6 5 7 7 5 5 5 3 2 5 9 11 14 15 14 11 7 9 12 13 12 10 10 10 9 12 13 11 6 2 1 7 12 13 13 16 20 20 16 12 12 13 15 11 7 6 5 5 7 9 10
13 11 11 11 10 9 11 13 14 12 8 5 4 3 2 2 2 1 2 6 8 8 9 10 9 9 11 5 3 2 5 10 8 6 10 10 6 4 4 7 8 6 6 8 7 6 6 7 10 14 13 12 12 9 9 11 10 9 8 8 9 10 10 9 5 1 2 6 9 12 11 11 14 15 13 9 7 10 12 8 5 7 7 7 10 10 11 12
13 10 10 10 9 8 8 12 12 8 4 3 3 2 2 1 0 0 3 5 6 5 4 3 4 5 5 1 2 5 8 7 5 5 10 9 5 4 5 7 8 8 8 11 12 12 13 7 2 7 9 10 12 10 10 10 8 9 9 9 11 11 12 11 9 8 10 9 6 8 9 8 5 5 5 2 5 11 5 8 12 11 10 11 13 13 13 13
13 11 10 9 9 7 6 9 6 4 4 1 1 1 2 2 1 1 3 4 5 3 1 2 1 1 0 1 1 3 5 5 1 3 5 4 3 4 3 5 6 9 10 13 13 11 13 6 2 4 7 7 8 10 12 9 7 8 9 10 12 12 13 13 11 9 8 5 1 4 8 5 1 6 7 3 9 7 7 14 13 12 12 12 12 12 12 12
13 12 11 9 7 5 5 6 3 4 4 2 2 2 2 1 1 1 2 4 5 2 3 2 2 2 2 2 1 2 3 3 2 3 2 1 2 1 3 2 3 6 5 5 7 5 6 1 2 4 7 6 7 10 12 10 7 7 3 3 7 9 10 10 8 6 5 6 1 2 5 6 5 8 5 5 12 2 13 14 12 12 11 11 11 10 11 11
14 13 12 11 8 6 5 4 2 4 3 2 2 2 1 1 1 1 2 5 6 1 3 1 0 1 1 1 2 3 1 2 3 2 2 1 1 1 3 3 3 2 0 0 3 2 4 3 1 3 6 7 7 8 8 8 7 4 3 4 4 5 7 6 6 5 5 8 7 4 6 7 7 4 4 8 11 3 13 12 12 12 10 11 11 11 11 11
16 16 15 14 12 10 8 4 3 4 2 2 1 1 2 1 1 1 3 5 4 2 2 1 2 1 1 1 3 2 1 1 2 2 3 0 1 1 5 7 5 3 4 4 5 0 3 4 3 5 6 6 6 3 1 5 7 1 5 4 4 4 5 4 5 7 6 8 7 6 7 6 7 2 4 6 6 5 11 12 12 11 10 10 10 12 11 11
14 15 15 15 13 12 11 8 6 5 2 1 1 1 1 1 1 1 2 4 1 2 1 2 3 2 3 4 4 3 1 1 1 2 3 2 2 1 3 5 6 5 5 7 8 4 1 1 1 4 5 5 3 3 4 3 4 1 3 1 1 2 4 4 6 7 6 8 8 6 9 5 7 3 3 2 3 5 9 11 11 11 10 9 10 11 10 9
10 10 11 12 11 10 10 11 13 10 6 4 3 1 0 1 1 3 5 4 1 1 1 2 2 2 4 5 5 4 3 1 3 4 4 2 3 2 2 1 3 5 6 8 11 9 3 3 2 4 6 2 3 4 4 1 0 1 1 3 4 6 5 5 6 4 5 8 8 6 12 8 5 2 2 1 1 2 7 10 10 11 10 9 9 9 9 8
8 8 10 11 9 8 7 6 12 15 10 7 4 1 1 1 1 5 6 2 1 0 3 3 1 2 4 3 2 3 3 2 4 5 4 2 4 5 3 2 2 3 5 6 8 9 6 4 3 3 3 2 3 2 1 3 1 2 2 4 5 5 4 4 4 3 6 7 4 1 8 10 7 2 1 3 6 5 4 8 11 12 10 9 9 8 8 8
7 7 9 11 10 9 8 3 5 12 12 7 4 1 1 2 4 6 3 2 1 2 2 1 1 2 2 1 1 1 1 2 3 3 2 2 3 5 6 5 2 3 6 4 2 3 5 7 7 4 3 5 5 3 2 3 3 3 3 3 5 5 4 5 5 4 7 4 2 4 2 7 9 6 8 6 7 8 5 8 11 12 11 10 9 8 7 7
8 7 7 11 13 11 10 5 2 8 12 8 3 0 1 4 5 5 5 4 1 1 2 3 2 1 2 1 1 1 0 0 3 2 1 1 3 5 8 8 3 3 6 5 6 5 3 2 7 6 2 6 9 5 3 3 4 6 4 4 4 5 7 8 7 7 8 3 3 3 1 4 8 7 10 8 7 11 9 11 12 12 12 11 10 8 7 8
8 8 8 11 14 13 11 8 4 6 9 7 2 1 3 6 3 2 7 8 2 2 2 3 2 2 2 2 1 2 1 1 3 2 1 2 3 4 7 8 7 4 4 4 6 6 6 4 5 6 2 7 12 8 4 2 3 7 5 4 5 6 7 7 6 7 9 6 2 2 1 4 5 2 3 6 12 12 11 13 13 11 11 10 9 8 7 8
8 9 9 9 13 15 13 10 7 8 8 5 2 3 7 8 3 2 6 7 3 2 2 1 2 1 3 3 2 2 2 1 2 1 1 2 3 4 6 4 6 5 1 2 3 2 7 7 2 3 1 5 9 5 2 2 3 4 2 3 5 4 5 6 6 7 8 8 6 5 4 5 6 2 9 12 13 12 11 12 11 10 9 8 7 8 7 7
9 9 9 11 13 15 14 11 9 10 8 4 4 7 7 6 4 3 3 3 4 2 2 1 2 2 5 4 3 3 2 1 0 1 1 3 3 5 6 2 4 7 4 2 3 2 6 6 3 3 1 3 1 2 1 2 3 1 2 3 2 2 3 5 7 7 7 9 7 6 8 8 8 5 9 13 11 11 10 10 10 9 8 8 7 7 6 6
9 7 7 11 14 15 14 12 11 11 6 4 8 8 4 3 6 5 0 1 2 2 1 3 2 2 5 5 5 5 4 2 2 2 2 3 3 4 6 3 3 7 6 2 2 2 4 7 3 3 5 1 2 4 2 2 1 1 2 1 2 1 1 3 7 7 8 11 7 7 12 11 9 6 5 11 10 9 8 8 9 8 7 7 7 6 5 5
6 3 5 12 17 16 14 14 13 9 4 4 11 10 4 4 7 5 1 1 1 2 1 5 3 1 4 6 7 2 5 4 3 4 3 4 3 3 4 3 2 2 2 1 2 1 1 6 5 3 3 1 3 3 4 2 1 1 1 2 1 3 4 5 6 5 8 11 8 9 14 11 9 9 4 6 11 10 8 7 7 6 6 6 6 6 5 5
5 2 3 9 17 18 16 15 12 6 3 7 11 8 4 5 7 4 2 2 1 2 3 7 5 3 5 7 8 3 5 7 6 5 5 5 5 3 1 2 2 3 2 1 3 1 0 4 4 1 2 1 2 3 5 3 1 1 2 2 2 2 4 5 4 2 6 9 8 8 10 8 7 6 4 3 11 11 8 7 5 5 5 4 4 4 4 4
5 1 1 4 14 20 19 15 10 6 7 8 7 5 2 4 5 2 1 2 2 2 3 7 8 8 9 10 12 8 6 7 8 8 6 6 7 3 3 2 1 3 3 0 2 2 0 4 6 2 1 2 3 4 5 6 5 3 4 5 4 3 2 3 3 3 5 8 7 8 9 7 4 3 5 8 9 8 8 8 6 5 5 4 4 3 3 3
4 3 1 6 14 20 19 12 8 8 8 7 7 8 6 3 2 2 1 3 3 1 1 4 7 8 8 9 11 8 5 5 7 8 7 7 10 5 3 4 3 3 2 1 2 2 1 4 7 6 5 6 8 7 6 8 8 6 5 6 7 5 3 5 7 6 5 6 6 8 10 7 1 4 4 7 7 6 7 8 6 5 5 4 3 3 3 3
4 3 2 7 16 22 17 9 8 7 8 8 7 8 7 3 3 5 4 4 5 4 2 3 6 6 6 8 9 8 6 5 7 8 7 8 11 7 1 2 2 2 2 4 3 1 0 3 7 8 8 10 14 13 5 3 6 6 6 8 9 7 5 8 9 6 5 6 4 6 10 6 1 3 4 6 7 7 7 7 7 5 4 4 3 2 2 1
5 2 3 9 19 21 12 8 9 7 8 8 6 7 7 5 6 9 8 8 8 7 6 6 7 8 8 9 9 9 8 5 7 9 8 9 9 2 3 1 0 1 2 5 4 0 1 3 6 7 7 9 14 11 1 3 2 5 6 6 5 5 5 6 6 5 5 5 6 8 10 4 2 3 4 6 6 6 5 5 6 6 4 4 3 2 2 1
4 2 2 7 20 21 11 7 10 10 10 9 9 10 10 8 9 10 10 10 8 7 7 7 8 9 8 8 8 8 7 5 6 7 8 9 4 4 4 3 2 2 2 2 2 1 2 4 5 5 5 6 8 8 2 2 1 1 3 3 3 4 6 5 4 4 4 6 9 9 7 3 1 1 3 5 6 6 5 5 5 5 5 5 4 3 2 2
4 3 1 3 12 14 8 5 6 9 11 13 13 13 12 9 8 9 11 10 8 7 7 5 6 6 7 7 7 7 7 7 5 4 5 6 2 3 3 4 4 2 1 3 3 0 4 5 4 5 6 6 7 7 4 1 1 1 2 4 5 7 7 5 5 6 5 5 7 7 6 4 1 3 6 6 7 6 5 5 5 5 5 4 3 2 1 1
3 3 3 2 4 7 5 3 5 7 9 11 11 11 14 13 7 6 9 10 10 10 9 7 6 6 7 9 9 8 10 10 8 6 5 6 3 1 3 3 4 4 4 4 2 1 4 5 7 10 10 10 10 10 9 8 6 7 8 9 11 10 9 7 7 8 7 6 6 8 10 10 9 12 15 8 5 6 6 7 6 5 5 4 3 3 2 2
2 3 5 5 2 5 6 5 6 7 8 9 7 7 13 15 10 6 7 7 7 8 9 8 8 9 9 10 10 10 11 11 10 10 9 8 6 2 2 2 3 4 4 2 1 2 4 6 10 12 13 14 15 16 16 15 14 15 14 14 15 14 12 10 11 12 11 10 9 9 11 14 13 14 17 13 7 6 6 7 6 5 5 4 3 4 4 5
2 1 2 1 2 6 7 5 7 10 11 10 7 8 12 14 12 8 6 4 2 4 6 7 9 12 12 11 9 8 8 9 9 10 9 7 6 3 2 2 3 3 2 3 2 2 4 8 11 12 14 16 17 18 18 17 16 15 16 17 17 18 17 16 15 15 13 12 13 15 18 19 16 17 20 17 8 2 3 5 3 2 3 4 4 5 6 6
1 1 1 2 1 3 2 1 6 12 15 12 8 10 13 13 13 8 3 3 4 5 7 9 8 6 6 7 6 5 7 6 5 4 2 1 1 1 3 3 1 3 3 3 3 3 4 7 8 9 11 13 15 17 17 16 16 17 18 20 20 22 22 20 18 19 19 18 20 22 24 22 19 19 17 8 2 4 4 3 2 2 3 4 4 5 6 7
1 1 0 0 0 1 2 1 5 9 12 11 9 10 10 13 14 8 2 2 6 7 9 11 6 3 3 1 4 5 4 1 1 2 2 2 2 2 3 4 2 2 2 2 3 3 6 6 1 2 7 10 13 15 13 12 13 14 15 17 20 22 22 19 19 20 20 20 21 23 23 21 15 7 2 4 5 3 2 2 2 2 2 3 5 6 7 7
2 3 2 1 2 3 2 2 6 8 8 10 10 9 10 13 15 11 4 1 3 6 7 6 3 4 2 3 5 7 4 1 0 2 1 2 4 3 2 2 1 0 1 2 1 1 5 5 1 1 7 9 9 11 12 9 9 12 14 17 20 20 17 17 17 17 17 18 20 20 18 13 4 3 4 3 3 2 0 2 2 3 2 4 6 7 7 8
1 2 2 2 2 5 4 3 6 8 7 8 9 7 7 6 5 8 7 3 3 1 2 2 2 3 5 7 6 3 2 4 3 2 2 0 1 2 2 2 2 3 3 2 1 1 3 4 3 4 6 5 7 9 7 4 6 9 11 14 17 17 16 17 17 18 20 19 16 13 9 3 1 2 1 1 2 2 3 3 3 4 4 5 7 8 8 8
Wind_Direction
345 344 340 334 333 333 324 313 307 309 307 309 306 302 302 299 300 300 302 306 308 309 309 316 317 319 321 322 327 326 323 321 309 272 248 266 279 266 251 228 203 201 193 167 163 175 174 190 186 180 198 185 211 199 153 196 212 221 233 246 255 260 274 272 265 288 295 299 300 280 261 280 289 266 197 221 243 254 268 265 258 244 240 246 254 261 246 235
320 328 333 328 329 329 313 304 298 301 307 309 305 303 302 299 303 302 303 306 305 306 307 312 314 315 316 319 325 324 319 314 293 267 260 260 257 252 248 233 218 194 186 178 183 192 194 200 185 185 209 204 185 166 174 184 192 222 249 258 254 263 283 293 281 291 288 286 295 296 292 278 278 284 273 259 269 270 272 271 266 258 248 245 250 250 241 232
309 314 317 315 318 312 305 307 305 305 308 309 306 304 302 298 300 299 301 303 304 305 307 311 315 315 315 320 323 323 321 309 286 277 258 229 210 216 243 222 220 195 180 189 204 209 228 231 190 195 223 232 200 181 209 180 183 229 242 257 259 266 275 270 277 283 282 290 291 290 293 283 275 280 272 260 274 276 270 272 273 274 269 259 257 255 249 237
312 308 304 304 303 299 305 311 312 315 315 315 314 312 309 304 301 300 301 300 301 303 305 311 315 317 319 324 324 328 322 294 282 87 144 157 169 183 242 219 211 186 178 205 220 214 241 241 198 214 238 246 223 201 230 195 176 234 220 247 269 281 280 267 282 284 281 293 289 289 290 282 282 280 263 256 271 270 263 267 271 280 290 292 293 294 284 255
314 311 306 300 297 299 307 311 316 320 319 321 320 318 315 308 305 303 301 301 301 301 304 308 311 316 321 328 326 331 321 289 52 116 152 162 168 157 248 228 199 180 181 205 206 202 220 217 206 223 238 251 238 214 239 216 197 252 232 248 266 274 276 275 289 294 291 296 282 280 279 281 291 279 258 253 259 260 267 282 287 288 293 297 296 295 291 268
317 316 311 304 301 300 304 310 314 315 319 323 321 321 314 308 305 301 301 300 300 301 303 305 309 315 319 328 329 321 296 284 108 165 196 210 224 276 246 219 187 179 184 198 194 196 210 210 208 222 233 250 247 237 251 219 191 253 254 253 263 268 272 280 292 299 276 280 273 275 282 288 286 276 271 260 255 258 268 278 284 285 288 291 291 286 275 258
318 321 315 312 310 308 315 321 319 318 323 324 321 317 310 305 301 298 299 297 297 299 301 303 306 311 317 331 334 247 250 269 259 217 237 243 243 265 233 205 182 179 187 200 196 199 211 214 219 236 248 253 258 251 255 231 198 243 266 268 271 273 273 280 286 276 253 267 270 279 286 282 275 277 283 274 266 267 271 271 272 278 283 285 283 275 265 256
317 324 323 321 327 332 336 339 335 332 331 327 320 313 306 302 298 297 294 291 293 291 292 296 298 306 316 317 274 260 241 255 268 264 264 256 252 246 220 193 182 182 193 206 203 213 222 225 232 244 255 258 271 261 251 246 236 241 256 269 274 273 271 276 279 270 260 261 267 274 273 268 269 277 281 278 276 273 269 267 268 272 276 279 277 271 266 261
323 327 327 336 354 357 353 352 346 342 340 333 324 318 312 307 301 297 292 289 286 285 286 286 287 291 283 190 260 276 253 242 257 272 273 260 252 228 200 188 188 187 201 213 216 227 226 237 244 247 269 278 278 269 253 242 256 252 259 279 287 282 278 277 275 267 259 257 258 262 265 268 274 281 274 270 273 273 263 261 267 273 277 279 276 269 265 263
328 325 333 3 21 17 11 4 355 350 344 337 332 326 319 312 307 301 296 292 286 284 281 277 276 261 235 210 244 263 260 227 242 268 274 257 237 203 188 192 191 193 208 215 219 227 228 250 277 325 290 286 271 266 250 238 285 317 292 294 288 282 280 274 270 265 259 260 255 251 264 275 281 279 267 267 269 269 259 260 269 275 279 281 279 273 266 262
331 335 6 35 45 33 24 13 3 356 347 341 335 328 323 315 310 305 299 293 288 286 282 276 265 242 223 221 241 256 224 203 245 268 269 249 202 187 191 197 192 202 217 218 220 230 240 257 303 15 282 293 278 263 240 253 309 304 300 298 283 278 276 268 264 261 257 258 248 244 261 275 274 251 249 263 267 266 271 276 278 279 280 282 281 277 271 265
338 1 28 42 46 32 22 11 6 358 349 342 334 330 325 317 313 308 300 295 290 284 280 273 253 217 213 239 242 247 235 234 264 273 265 236 196 193 198 199 194 209 228 235 232 231 241 256 234 237 254 318 290 277 245 307 309 287 291 289 283 281 275 268 262 255 249 236 154 222 260 267 260 243 242 253 263 267 273 283 289 288 285 283 281 278 273 269
347 13 22 22 25 17 8 4 3 358 350 341 337 333 325 321 317 311 305 299 293 284 276 259 227 189 213 263 233 226 236 245 261 270 257 226 200 203 207 207 203 209 225 250 271 244 232 236 235 245 267 273 272 314 319 262 268 277 277 270 283 288 280 271 254 216 227 195 142 199 265 274 271 270 269 275 286 284 282 290 294 291 287 283 281 279 274 273
341 2 9 3 5 2 357 357 356 355 349 341 339 334 327 324 318 315 313 303 293 284 269 220 187 170 213 265 190 202 231 241 247 248 232 205 177 192 205 212 211 212 220 242 301 298 234 224 236 253 271 256 273 344 287 256 244 270 275 256 264 275 281 278 203 169 203 172 159 210 262 277 279 286 293 313 321 292 288 290 290 288 287 284 280 278 277 278
330 343 348 348 355 353 350 351 352 351 348 343 338 333 328 323 321 322 316 307 298 279 219 171 173 169 253 257 183 181 224 223 207 206 213 189 175 191 185 188 198 207 216 222 248 250 190 191 216 249 248 226 271 288 272 265 253 259 270 262 250 256 279 286 214 192 229 197 172 207 265 278 277 292 300 307 300 289 287 285 284 285 285 285 284 282 282 282
334 333 330 336 343 344 345 346 347 348 347 344 338 334 329 324 330 330 324 318 300 140 128 156 178 195 287 261 148 153 191 193 194 211 217 191 191 193 144 144 148 159 176 176 180 157 167 191 204 272 260 228 245 255 263 271 261 248 246 259 267 272 286 293 283 248 246 183 187 212 259 284 281 295 298 297 293 288 285 281 281 283 284 284 287 288 287 289
328 326 329 330 332 338 342 341 342 345 347 346 339 336 332 329 339 345 8 63 116 121 124 169 174 205 271 217 174 185 148 173 193 205 210 190 185 165 145 147 144 139 133 129 151 157 170 193 187 265 241 239 245 249 260 262 265 265 249 255 265 273 288 294 301 303 180 183 227 231 249 272 280 288 289 289 289 285 278 275 276 282 286 285 288 290 292 299
314 322 329 323 329 336 337 337 338 343 347 346 341 338 330 323 345 26 57 93 108 112 125 151 175 223 234 182 223 111 110 138 169 162 183 180 171 165 167 164 153 152 147 142 171 179 182 192 198 234 231 233 235 226 242 254 271 288 285 282 282 283 294 292 292 303 258 256 273 271 268 279 289 292 289 288 289 285 275 272 277 285 285 284 288 295 304 317
298 313 323 317 325 335 338 337 336 343 347 346 345 339 313 283 303 140 173 158 144 193 241 155 193 259 302 210 119 88 110 136 145 144 158 158 158 166 176 170 163 172 173 169 184 182 188 192 190 230 237 234 228 218 235 256 274 287 292 291 290 289 287 286 285 289 296 295 290 287 286 291 297 297 292 285 282 279 276 280 287 283 279 283 297 319 334 345
290 305 315 316 323 332 339 338 339 348 348 350 346 328 284 276 274 192 205 234 243 264 293 257 229 271 296 293 111 115 146 168 162 140 154 151 154 165 167 165 169 199 215 198 178 165 191 213 202 221 240 251 253 244 249 262 275 285 289 282 280 282 279 281 282 285 306 316 288 290 294 297 301 296 286 280 277 276 280 284 280 274 280 296 337 2 1 13
288 299 308 314 317 323 333 336 339 347 350 355 346 318 318 2 320 322 329 268 250 252 265 264 256 266 274 286 124 151 63 208 191 137 157 158 163 183 172 171 186 211 213 184 134 123 194 224 223 231 245 259 272 280 277 275 278 279 280 278 277 277 277 279 283 290 319 322 283 295 297 299 302 292 283 279 278 279 280 276 269 278 306 342 11 12 26 45
279 281 287 295 301 312 325 329 331 338 349 1 354 345 36 6 324 330 322 286 266 246 245 253 253 255 259 249 142 174 321 258 220 141 156 164 183 213 173 177 216 217 171 157 153 183 213 228 232 236 248 260 268 281 281 273 274 274 271 274 274 275 280 283 282 291 8 292 290 304 303 297 288 281 282 283 283 279 268 266 277 316 351 17 31 39 57 61
268 267 270 278 289 302 312 320 325 333 348 6 9 22 36 325 312 298 261 282 279 245 229 240 241 246 251 230 144 195 245 252 245 167 160 171 187 216 190 197 232 235 181 191 225 236 238 238 231 238 251 258 258 260 264 267 265 258 259 267 270 273 279 286 285 317 315 281 289 301 298 286 274 265 270 276 269 265 265 279 352 30 40 58 61 61 63 60
265 268 270 271 275 284 297 314 321 322 335 15 31 30 24 330 239 329 276 273 273 246 211 228 251 258 260 229 144 211 225 239 251 170 163 184 180 162 215 224 234 242 222 224 236 243 256 269 225 237 249 251 258 261 257 260 262 254 252 254 263 271 277 286 297 311 304 283 282 303 294 289 285 258 259 251 243 260 285 50 57 62 66 73 71 63 60 56
257 263 267 263 264 270 289 306 304 280 290 326 79 16 19 12 143 149 295 271 257 245 148 143 209 238 165 108 144 227 230 218 220 106 149 209 203 152 216 229 230 248 239 237 244 251 264 277 115 212 236 237 249 258 253 252 268 266 253 250 261 275 282 289 299 311 306 280 91 10 313 306 336 273 279 282 267 270 73 73 69 69 65 66 65 58 55 54
247 249 249 245 247 253 278 295 263 255 280 223 220 327 352 352 130 169 286 279 262 219 127 173 197 164 129 116 164 199 227 200 80 62 128 297 303 236 260 192 202 270 271 249 259 264 263 275 103 223 238 234 236 252 253 247 259 267 263 272 274 280 284 290 300 306 296 286 335 50 303 288 282 279 261 248 269 274 85 78 79 78 71 67 61 54 49 50
240 239 235 231 229 236 269 311 274 258 270 176 214 310 315 300 143 210 259 278 274 147 113 188 223 172 129 75 224 207 200 147 107 101 141 323 289 236 260 214 187 253 178 267 276 248 208 198 117 216 231 232 230 250 251 226 240 270 19 7 325 301 295 299 302 286 278 294 287 218 227 267 294 296 192 239 266 123 93 84 87 82 77 78 71 64 54 47
238 237 233 234 240 246 257 285 277 257 255 120 157 276 307 268 196 259 273 278 289 98 97 95 100 91 118 133 236 233 46 140 157 89 75 314 228 187 233 240 261 244 171 208 249 235 137 187 191 186 208 228 226 264 338 198 232 311 44 4 348 332 308 304 292 281 282 295 285 204 193 259 293 281 190 247 261 140 106 98 102 90 80 82 76 72 64 54
237 232 229 233 243 248 246 246 245 253 261 199 198 274 313 193 219 282 260 262 289 99 75 95 133 144 138 168 211 203 148 189 354 67 114 186 223 258 246 254 286 268 210 222 245 272 75 141 226 200 210 239 227 29 33 216 239 35 70 356 332 265 268 271 266 278 282 273 273 219 185 241 297 273 204 225 218 162 122 108 108 99 88 78 72 71 67 63
227 222 222 222 226 233 236 238 239 243 256 246 237 292 278 180 222 231 219 232 326 63 110 140 156 158 170 188 191 189 201 161 82 126 156 163 176 208 265 279 284 265 238 236 249 257 223 103 14 240 232 250 88 67 27 11 353 43 294 284 277 249 241 251 248 264 274 263 280 234 189 211 294 284 188 155 103 106 118 126 120 105 96 80 71 66 58 57
214 211 211 206 208 218 218 236 243 237 240 241 224 174 227 194 213 225 219 220 315 158 147 158 146 159 200 229 190 178 200 158 132 168 186 158 171 195 215 211 227 245 244 239 242 244 220 193 221 220 217 184 120 129 79 77 107 224 261 287 294 269 231 235 224 206 259 266 315 18 182 210 247 240 203 123 106 87 110 138 131 115 106 89 75 65 55 48
206 206 204 200 206 215 213 244 260 227 220 212 187 161 210 201 219 224 200 93 215 208 153 127 124 166 198 287 310 159 183 165 161 199 216 174 195 208 212 219 221 255 262 264 261 239 220 214 205 182 180 198 197 202 171 153 181 209 237 252 279 284 257 255 248 234 260 263 86 78 152 229 248 253 254 230 119 99 97 116 123 119 109 95 79 66 60 53
203 204 202 203 208 212 214 230 260 205 197 178 158 92 158 216 226 201 183 192 222 103 77 62 75 150 173 222 221 140 334 188 155 189 246 201 240 232 221 221 214 263 276 294 314 295 272 213 179 177 190 193 196 214 228 209 183 190 211 218 236 275 274 271 275 267 268 268 109 102 92 258 266 264 247 230 103 90 91 92 98 104 100 94 87 76 64 58
206 207 207 208 213 215 213 215 213 187 178 165 156 142 193 226 230 143 197 213 210 66 80 77 101 159 209 231 202 129 211 214 123 156 205 192 236 257 246 225 202 229 269 283 293 279 278 288 178 176 159 166 190 224 271 320 190 198 207 222 237 259 267 270 278 270 274 292 291 199 195 263 283 356 90 108 94 90 90 87 86 88 89 90 88 80 66 59
217 218 223 222 221 221 215 212 211 188 171 164 186 202 215 231 226 192 222 219 199 112 102 94 108 169 254 240 182 137 218 235 102 121 206 215 249 276 277 246 191 205 242 262 278 264 266 278 130 109 28 168 191 229 309 327 247 207 173 225 247 262 259 265 275 275 287 298 281 238 236 272 278 137 107 98 94 92 86 87 89 85 87 88 81 73 64 59
224 228 236 235 230 224 214 209 203 184 167 163 206 220 228 236 225 220 242 231 217 123 105 206 175 229 270 257 205 188 187 236 170 153 182 207 248 253 253 262 165 185 177 192 260 258 262 272 94 90 266 184 190 342 14 275 275 126 144 223 264 322 290 276 274 273 275 273 268 258 258 269 269 222 126 100 92 96 94 90 90 87 87 85 77 71 67 62
218 221 235 232 228 223 212 204 193 182 170 182 214 225 231 232 232 231 353 338 273 38 74 231 200 231 264 268 248 209 171 180 193 189 210 212 226 222 224 227 151 192 202 205 259 245 265 275 238 219 246 167 41 340 274 261 311 154 191 272 346 317 277 262 266 268 261 259 257 253 260 268 273 259 133 119 116 111 106 99 96 96 91 85 82 79 72 68
193 199 251 238 224 215 209 201 189 178 167 206 224 235 239 231 237 233 161 96 357 40 187 228 222 226 253 269 280 229 164 198 196 186 227 238 220 184 212 235 109 153 229 196 229 241 277 276 263 259 277 130 95 294 245 186 43 227 248 341 318 264 257 241 249 259 256 261 261 247 255 261 258 265 255 167 146 127 118 113 106 101 96 92 91 85 74 68
138 131 276 241 215 204 197 190 178 169 200 221 229 237 241 243 244 235 172 147 149 113 209 240 239 228 236 257 279 264 186 230 252 240 240 244 238 198 185 277 91 76 9 183 225 283 29 268 271 66 49 100 130 227 232 209 120 101 267 267 230 261 275 260 265 281 255 260 268 256 253 254 256 286 324 126 135 135 137 128 114 104 99 94 89 83 67 59
139 185 260 187 190 189 183 178 173 184 211 222 231 233 242 255 245 223 180 205 203 163 216 238 237 243 251 258 267 264 240 246 255 253 247 252 262 252 80 20 48 82 34 353 244 286 229 252 264 240 158 256 231 223 244 260 251 213 225 231 217 216 263 281 272 244 247 259 264 264 260 254 273 357 59 100 114 126 133 130 126 114 104 92 83 75 56 50
173 236 196 147 170 172 167 173 191 198 208 222 233 233 238 244 214 177 172 213 225 159 168 231 238 248 256 258 259 259 256 251 244 249 251 246 257 260 75 31 12 60 33 302 256 270 259 251 262 264 260 259 263 269 277 275 272 268 254 247 254 257 260 272 261 233 227 251 256 262 264 256 303 18 60 91 89 94 110 119 122 115 110 99 79 66 54 42
196 222 135 142 163 165 163 182 204 200 213 225 224 225 224 208 208 215 199 199 216 214 202 224 234 239 240 244 251 252 250 247 241 246 250 244 251 256 61 38 13 37 333 292 277 265 258 252 258 264 260 260 273 284 291 271 270 274 268 264 268 266 248 254 266 266 257 264 269 263 261 255 69 42 59 81 82 83 91 105 116 119 115 106 97 85 82 63
203 199 110 146 167 172 175 197 204 205 220 224 222 220 211 208 231 230 214 209 217 218 219 225 227 234 242 245 251 254 251 247 244 243 246 252 254 263 58 46 329 355 305 285 277 104 111 251 258 264 265 272 276 275 303 65 277 255 256 265 270 275 279 276 278 289 284 276 280 268 259 260 55 48 68 90 98 103 111 124 131 136 136 135 142 135 110 85
197 170 92 164 180 186 196 204 206 213 218 221 228 227 224 231 237 232 223 220 221 222 227 234 235 238 245 247 248 251 247 247 253 251 253 259 259 72 55 11 342 308 313 317 301 325 285 265 272 281 281 287 276 257 220 74 35 258 279 300 310 298 303 307 281 274 264 237 243 258 264 258 96 114 147 145 148 151 151 149 149 152 158 159 154 138 106 57
175 169 77 181 193 202 219 225 222 225 221 224 232 232 233 237 227 224 232 233 230 232 235 238 244 248 248 247 248 246 237 237 251 265 263 256 252 70 48 11 2 337 17 45 69 151 276 269 276 283 275 272 267 263 271 306 88 66 275 263 266 262 266 288 290 274 263 232 232 255 274 278 245 228 230 202 170 165 158 156 167 171 169 171 166 159 143 77
189 191 170 164 211 229 244 261 252 239 224 224 231 233 235 237 221 200 222 237 238 236 241 247 248 250 248 243 246 250 244 238 241 252 255 249 248 76 67 38 36 65 68 55 69 257 279 268 258 258 258 261 266 272 287 295 284 280 276 268 268 264 259 268 268 259 269 285 273 260 264 274 275 271 272 263 180 179 187 178 180 179 171 178 183 184 197 215
246 212 176 164 192 226 232 237 233 233 231 227 227 229 234 238 235 204 202 229 243 235 240 249 243 238 240 240 244 252 254 249 246 247 254 261 262 248 115 94 62 67 75 84 156 244 268 267 261 257 255 259 267 272 278 281 278 279 281 278 276 275 269 260 255 261 277 287 275 265 269 274 276 278 284 290 279 243 208 179 181 181 173 178 190 203 220 227
251 235 163 152 201 209 219 222 210 219 231 232 233 239 239 237 235 225 208 205 218 224 230 241 240 237 239 244 245 247 251 252 249 247 253 265 271 264 206 157 119 110 148 160 161 217 262 268 269 270 269 269 273 276 276 277 279 278 277 274 274 274 269 263 263 269 274 269 267 277 280 279 281 282 282 288 299 288 155 145 149 153 167 190 209 223 232 231
239 265 1 353 260 200 200 179 191 212 226 231 236 242 242 238 235 230 202 193 210 215 225 236 240 235 241 247 238 233 245 252 256 263 281 20 347 293 265 252 172 137 166 186 187 207 253 267 270 277 278 274 272 272 274 276 277 274 271 270 271 269 266 267 272 275 272 268 268 273 274 273 276 279 281 294 37 93 112 121 140 170 200 220 230 244 250 247
273 290 51 102 188 95 53 105 178 204 222 228 233 238 239 240 239 229 166 205 226 215 219 231 224 107 77 210 202 217 239 269 315 297 13 18 294 284 272 271 264 142 160 212 223 228 255 266 303 335 282 270 266 268 272 277 278 277 275 271 267 265 266 269 272 273 272 269 265 264 265 269 273 282 339 71 89 95 110 143 193 222 230 249 263 266 265 261
329 344 345 231 198 156 137 164 186 200 216 219 223 233 235 237 239 233 206 107 249 238 230 223 183 115 121 205 226 245 262 44 68 257 286 285 283 303 321 299 307 164 175 205 220 248 264 271 336 317 269 263 263 269 275 286 288 278 267 260 258 260 263 264 263 264 265 265 264 263 266 274 282 82 91 114 112 87 249 255 287 290 280 283 285 285 285 281
212 320 302 264 217 171 162 166 193 204 217 217 214 221 227 225 226 223 212 131 81 277 257 178 168 217 238 236 241 263 14 60 72 81 86 228 269 291 273 259 261 253 230 202 195 221 242 264 285 276 265 261 261 271 287 310 289 265 250 247 250 254 258 258 257 256 255 258 265 270 273 279 126 115 145 155 99 25 317 312 317 305 299 293 286 286 288 288